Regional Weather Roundup
Issued by NWS Mt. Holly, NJ

Home | Current Version | Previous Version | Text Only | Print | Product List | Glossary On
Versions: 1 2 3 4 5 6 7 8 9 10 11 12 13 14 15 16 17 18 19 20 21 22 23 24 25 26 27 28
000
ASUS41 KPHI 221412
RWRPHI

REGIONAL WEATHER ROUNDUP
NATIONAL WEATHER SERVICE MOUNT HOLLY NJ
1000 AM EDT SUN OCT 22 2017

NOTE:  "FAIR" INDICATES FEW OR NO CLOUDS BELOW 12,000 FEET WITH NO
SIGNIFICANT WEATHER AND/OR OBSTRUCTIONS TO VISIBILITY.

 * = STATION DOES NOT REPORT PRECIPITATION (E.G. RAIN, SNOW, ETC.)
        OR FOG.

NJZ015>026-221500-
SOUTHERN NEW JERSEY

CITY           SKY/WX    TMP DP  RH WIND       PRES   REMARKS
POMONA         FOG       60  60 100 CALM      30.42S VSB 1
WILDWOOD*      SUNNY     66  64  93 SE3       30.42S
MILLVILLE      MOSUNNY   61  59  93 CALM      30.42S
WRIGHTSTOWN    MOSUNNY   55  54  94 CALM      30.39F
MOUNT HOLLY      N/A    N/A N/A N/A MISG      30.42S
TRENTON        SUNNY     60  50  69 SE3       30.41F

$$
NJZ001>014-221500-
NORTHERN NEW JERSEY

CITY           SKY/WX    TMP DP  RH WIND       PRES   REMARKS
SUSSEX         MOSUNNY   51  49  92 CALM      30.41F
ANDOVER*         N/A     56  52  86 CALM      30.41F
MORRISTOWN     PTSUNNY   54  48  82 CALM      30.43F
NEWARK         PTSUNNY   62  47  57 CALM      30.41F
TETERBORO      MOSUNNY   61  46  57 CALM      30.40F
CALDWELL       MOSUNNY   56  49  77 CALM      30.42F
SOMERVILLE     SUNNY     56  50  80 CALM      30.40F
ALLAIRE*       MOSUNNY   62  55  77 CALM      30.43S
TOMS RIVER*      N/A     60  59  96 CALM      30.43S

$$
PAZ043-044-047-054-055-060>062-066>071-221500-
EASTERN PENNSYLVANIA

CITY           SKY/WX    TMP DP  RH WIND       PRES   REMARKS
PHILADELPHIA   PTSUNNY   56  54  93 CALM      30.42F
NORTH PHILA    SUNNY     62  52  69 CALM      30.43F
BLUE BELL*     SUNNY     57  46  67 CALM      30.43F
DOYLESTOWN     SUNNY     61  51  70 CALM      30.40F
QUAKERTOWN*    SUNNY     57  48  72 CALM      30.42F
PERKASIE*      FAIR      63  54  72 CALM      30.42F
POTTSTOWN      SUNNY     55  50  83 CALM      30.43S
LANCASTER      SUNNY     57  51  80 CALM      30.41S
COATESVILLE    SUNNY     63  48  59 CALM      30.42F
READING        SUNNY     56  51  84 CALM      30.40F HAZE
ALLENTOWN      SUNNY     56  47  71 CALM      30.41F
MOUNT POCONO   SUNNY     63  44  50 VRB5      30.42S
HAZLETON       SUNNY     63  43  48 CALM      30.43S
LEHIGHTON      FAIR      50  45  81 CALM      30.43S
WILKES BARRE   SUNNY     58  46  64 CALM      30.39F

$$
DEZALL-MDZ008-012-015-019-020-221500-
DELAWARE AND EASTERN MARYLAND

CITY           SKY/WX    TMP DP  RH WIND       PRES   REMARKS
WILMINGTON     MOSUNNY   60  55  83 CALM      30.42F
DOVER          PTSUNNY   59  55  88 CALM      30.41F FOG
GEORGETOWN     SUNNY     59  58  96 CALM      30.42S
EASTON         MOSUNNY   64  57  77 CALM      30.44S
PATUXENT       PTSUNNY   66  62  87 CALM      30.40S
OCEAN CITY     SUNNY     68  61  78 SE7       30.42R
WALLOPS ISLAND SUNNY     68  64  87 SE5       30.41S
CAMBRIDGE      FOG       59  59 100 CALM      30.41S VSB 1/4
SALISBURY      SUNNY     62  60  93 CALM      30.41S

$$
PAZ001-021-NYZ056-072-MDZ011-DCZ001-221500-
OTHER NEARBY LOCATIONS

CITY           SKY/WX    TMP DP  RH WIND       PRES   REMARKS
HARRISBURG     MOSUNNY   57  48  72 E5        30.39F
STATE COLLEGE  SUNNY     50  46  87 CALM      30.38R
WILLIAMSPORT   MOSUNNY   51  46  83 CALM      30.38F
BINGHAMTON     SUNNY     59  43  55 S6        30.37F
NEW YORK CITY  MOSUNNY   65  48  54 CALM      30.43F
BALTIMORE      MOSUNNY   61  57  87 E6        30.40S
WASHINGTON DC  MOSUNNY   61  55  81 CALM      30.41S

$$




USA.gov is the U.S. government's official web portal to all federal, state and local government web resources and services.